When you browse on this site, cookies collect data to enhance your experience and personalize the content and advertising you see.
Visit our Privacy Policy to learn more. By continuing to use the site, you agree to this use of cookies and data.
  • In Germany
  • List of Countries
  • For 7 days
  • Water Temperature
  • Satellite Maps
  • Weather Map
  • Weather Widgets
  • user-avatar
    Login

    Hourly Weather Darwin

    Today, 22 May, Wednesday

    Time Temperature Precipitation Wind Pressure Humidity
    00:00 +28°C° 0 mm 4 mps 760 mmHg 55%
    01:00 +28°C° 0 mm 4 mps 760 mmHg 56%
    02:00 +28°C° 0 mm 4 mps 760 mmHg 58%
    03:00 +27°C° 0 mm 4 mps 760 mmHg 60%
    04:00 +27°C° 0 mm 5 mps 760 mmHg 62%
    05:00 +27°C° 0 mm 5 mps 760 mmHg 64%
    06:00 +26°C° 0 mm 5 mps 761 mmHg 66%
    07:00 +27°C° 0 mm 6 mps 761 mmHg 61%
    08:00 +29°C° 0 mm 6 mps 761 mmHg 57%
    09:00 +30°C° 0 mm 7 mps 761 mmHg 53%
    10:00 +33°C° 0 mm 6 mps 761 mmHg 47%
    11:00 +35°C° 0 mm 6 mps 760 mmHg 41%
    12:00 +36°C° 0 mm 5 mps 760 mmHg 35%
    13:00 +37°C° 0 mm 5 mps 760 mmHg 34%
    14:00 +37°C° 0 mm 5 mps 759 mmHg 33%
    15:00 +38°C° 0 mm 4 mps 759 mmHg 31%
    16:00 +36°C° 0 mm 4 mps 759 mmHg 35%
    17:00 +34°C° 0 mm 4 mps 759 mmHg 39%
    18:00 +33°C° 0 mm 3 mps 758 mmHg 43%
    19:00 +31°C° 0 mm 3 mps 759 mmHg 46%
    20:00 +30°C° 0 mm 3 mps 759 mmHg 48%
    21:00 +29°C° 0 mm 3 mps 760 mmHg 51%
    22:00 +29°C° 0 mm 4 mps 760 mmHg 52%
    23:00 +29°C° 0 mm 4 mps 760 mmHg 53%

    Tomorrow, 23 May, Thursday

    Time Temperature Precipitation Wind Pressure Humidity
    00:00 +28°C° 0 mm 5 mps 760 mmHg 53%
    01:00 +28°C° 0 mm 5 mps 760 mmHg 56%
    02:00 +27°C° 0 mm 6 mps 760 mmHg 59%
    03:00 +27°C° 0 mm 6 mps 760 mmHg 62%
    04:00 +26°C° 0 mm 6 mps 760 mmHg 65%
    05:00 +26°C° 0 mm 6 mps 760 mmHg 68%
    06:00 +24°C° 0 mm 6 mps 760 mmHg 72%
    07:00 +27°C° 0 mm 6 mps 760 mmHg 65%
    08:00 +28°C° 0 mm 7 mps 761 mmHg 59%
    09:00 +30°C° 0 mm 7 mps 761 mmHg 53%
    10:00 +32°C° 0 mm 7 mps 761 mmHg 47%
    11:00 +34°C° 0 mm 6 mps 760 mmHg 42%
    12:00 +35°C° 0 mm 5 mps 760 mmHg 37%
    13:00 +36°C° 0 mm 5 mps 759 mmHg 36%
    14:00 +36°C° 0 mm 5 mps 758 mmHg 35%
    15:00 +37°C° 0 mm 4 mps 758 mmHg 34%
    16:00 +35°C° 0 mm 4 mps 758 mmHg 40%
    17:00 +34°C° 0 mm 3 mps 758 mmHg 46%
    18:00 +31°C° 0 mm 3 mps 758 mmHg 51%
    19:00 +30°C° 0 mm 2 mps 759 mmHg 54%
    20:00 +30°C° 0 mm 1 mps 759 mmHg 57%
    21:00 +29°C° 0 mm 1 mps 760 mmHg 60%
    22:00 +29°C° 0 mm 2 mps 760 mmHg 59%
    23:00 +29°C° 0 mm 2 mps 760 mmHg 58%

    Day after tomorrow, 24 May, Friday

    Time Temperature Precipitation Wind Pressure Humidity
    00:00 +29°C° 0 mm 3 mps 760 mmHg 57%
    01:00 +28°C° 0 mm 4 mps 760 mmHg 62%
    02:00 +27°C° 0 mm 4 mps 760 mmHg 66%
    03:00 +27°C° 0 mm 5 mps 759 mmHg 70%
    04:00 +26°C° 0 mm 5 mps 760 mmHg 71%
    05:00 +26°C° 0 mm 5 mps 760 mmHg 71%
    06:00 +26°C° 0 mm 5 mps 760 mmHg 71%
    07:00 +27°C° 0 mm 6 mps 760 mmHg 64%
    08:00 +29°C° 0 mm 6 mps 760 mmHg 57%
    09:00 +30°C° 0 mm 7 mps 761 mmHg 50%
    10:00 +33°C° 0 mm 6 mps 760 mmHg 45%
    11:00 +35°C° 0 mm 6 mps 760 mmHg 39%
    12:00 +36°C° 0 mm 5 mps 759 mmHg 34%
    13:00 +37°C° 0 mm 4 mps 759 mmHg 34%
    14:00 +37°C° 0 mm 4 mps 758 mmHg 33%
    15:00 +37°C° 0 mm 3 mps 757 mmHg 33%
    16:00 +36°C° 0 mm 3 mps 757 mmHg 37%
    17:00 +34°C° 0 mm 2 mps 757 mmHg 41%
    18:00 +32°C° 0 mm 2 mps 757 mmHg 45%
    19:00 +31°C° 0 mm 2 mps 758 mmHg 48%
    20:00 +30°C° 0 mm 2 mps 759 mmHg 50%
    21:00 +29°C° 0 mm 2 mps 759 mmHg 52%
    22:00 +29°C° 0 mm 2 mps 759 mmHg 53%
    23:00 +28°C° 0 mm 2 mps 759 mmHg 54%

    25 May, Saturday

    Time Temperature Precipitation Wind Pressure Humidity
    00:00 +28°C° 0 mm 2 mps 759 mmHg 55%
    01:00 +28°C° 0 mm 2 mps 759 mmHg 56%
    02:00 +27°C° 0 mm 3 mps 759 mmHg 58%
    03:00 +27°C° 0 mm 3 mps 758 mmHg 59%
    04:00 +26°C° 0 mm 4 mps 759 mmHg 62%
    05:00 +25°C° 0 mm 4 mps 759 mmHg 64%
    06:00 +25°C° 0 mm 4 mps 759 mmHg 67%
    07:00 +26°C° 0 mm 5 mps 760 mmHg 62%
    08:00 +28°C° 0 mm 5 mps 760 mmHg 58%
    09:00 +29°C° 0 mm 6 mps 760 mmHg 53%
    10:00 +32°C° 0 mm 5 mps 760 mmHg 46%
    11:00 +34°C° 0 mm 5 mps 759 mmHg 40%
    12:00 +36°C° 0 mm 4 mps 759 mmHg 33%
    13:00 +36°C° 0 mm 4 mps 758 mmHg 32%
    14:00 +37°C° 0 mm 3 mps 757 mmHg 31%
    15:00 +37°C° 0 mm 3 mps 756 mmHg 30%
    16:00 +35°C° 0 mm 3 mps 756 mmHg 35%
    17:00 +33°C° 0 mm 3 mps 757 mmHg 40%
    18:00 +31°C° 0 mm 3 mps 757 mmHg 45%
    19:00 +30°C° 0 mm 2 mps 758 mmHg 49%
    20:00 +29°C° 0 mm 1 mps 758 mmHg 53%
    21:00 +28°C° 0 mm 1 mps 759 mmHg 56%
    22:00 +27°C° 0 mm 1 mps 759 mmHg 57%
    23:00 +27°C° 0 mm 1 mps 759 mmHg 58%

    26 May, Sunday

    Time Temperature Precipitation Wind Pressure Humidity
    00:00 +27°C° 0 mm 2 mps 759 mmHg 59%
    01:00 +26°C° 0 mm 2 mps 759 mmHg 59%
    02:00 +26°C° 0 mm 2 mps 759 mmHg 59%
    03:00 +25°C° 0 mm 3 mps 758 mmHg 59%
    04:00 +25°C° 0 mm 3 mps 758 mmHg 61%
    05:00 +25°C° 0 mm 3 mps 759 mmHg 63%
    06:00 +25°C° 0 mm 3 mps 759 mmHg 64%
    07:00 +26°C° 0 mm 3 mps 759 mmHg 62%
    08:00 +28°C° 0 mm 3 mps 760 mmHg 59%
    09:00 +29°C° 0 mm 3 mps 760 mmHg 57%
    10:00 +31°C° 0 mm 3 mps 760 mmHg 48%
    11:00 +34°C° 0 mm 3 mps 759 mmHg 40%
    12:00 +36°C° 0 mm 3 mps 759 mmHg 32%
    13:00 +36°C° 0 mm 3 mps 758 mmHg 31%
    14:00 +36°C° 0 mm 3 mps 757 mmHg 30%
    15:00 +36°C° 0 mm 2 mps 757 mmHg 30%
    16:00 +35°C° 0 mm 2 mps 757 mmHg 34%
    17:00 +32°C° 0 mm 2 mps 757 mmHg 38%
    18:00 +31°C° 0 mm 2 mps 758 mmHg 42%
    19:00 +30°C° 0 mm 2 mps 758 mmHg 43%
    20:00 +29°C° 0 mm 2 mps 759 mmHg 45%
    21:00 +28°C° 0 mm 2 mps 759 mmHg 46%
    22:00 +28°C° 0 mm 2 mps 759 mmHg 47%
    23:00 +27°C° 0 mm 3 mps 759 mmHg 47%

    27 May, Monday

    Time Temperature Precipitation Wind Pressure Humidity
    00:00 +27°C° 0 mm 3 mps 759 mmHg 48%
    01:00 +27°C° 0 mm 4 mps 758 mmHg 50%
    02:00 +27°C° 0 mm 5 mps 758 mmHg 53%
    03:00 +26°C° 0 mm 6 mps 758 mmHg 55%
    04:00 +26°C° 0 mm 5 mps 758 mmHg 58%
    05:00 +25°C° 0 mm 5 mps 759 mmHg 62%
    06:00 +25°C° 0 mm 5 mps 759 mmHg 65%
    07:00 +26°C° 0 mm 5 mps 759 mmHg 60%
    08:00 +28°C° 0 mm 6 mps 760 mmHg 54%
    09:00 +29°C° 0 mm 6 mps 760 mmHg 49%
    10:00 +32°C° 0 mm 6 mps 759 mmHg 43%
    11:00 +34°C° 0 mm 5 mps 759 mmHg 38%
    12:00 +35°C° 0 mm 5 mps 758 mmHg 33%
    13:00 +36°C° 0 mm 4 mps 758 mmHg 32%
    14:00 +36°C° 0 mm 4 mps 757 mmHg 31%
    15:00 +37°C° 0 mm 3 mps 756 mmHg 31%
    16:00 +35°C° 0 mm 3 mps 757 mmHg 36%
    17:00 +32°C° 0 mm 2 mps 757 mmHg 40%
    18:00 +31°C° 0 mm 2 mps 757 mmHg 45%
    19:00 +30°C° 0 mm 2 mps 758 mmHg 47%
    20:00 +29°C° 0 mm 1 mps 758 mmHg 50%
    21:00 +28°C° 0 mm 1 mps 759 mmHg 52%
    22:00 +28°C° 0 mm 1 mps 759 mmHg 53%
    23:00 +27°C° 0 mm 1 mps 759 mmHg 54%
    Show more